User: anonymous   Login
Location: Unspecified
(0.0000°N, 0.0000°E)
Time: 00:02:48
(UTC+00:00)
Language:

ONEWEB-0169 - Orbit

View from above orbital plane
View from above orbital plane
View from above satellite
View from above satellite

Ground track
Ground track

The orbit is defined by the following mean orbital elements,

1 48077U          26144.95000350 +.00000000 +00000-0 +94083-3 0 00005
2 48077  87.8941 324.8511 0001859  95.2190 264.9151 13.13468446    06
Epoch (UTC): 24 May 2026 22:48:00
Eccentricity: 0.0001859
inclination: 87.8941°
perigee height: 1208 km
apogee height: 1211 km
right ascension of ascending node: 324.8511°
argument of perigee: 95.2190°
revolutions per day: 13.13468446
mean anomaly at epoch: 264.9151°

The dashed part of the orbit path shows where the satellite is in the earth's shadow,  

DLR